Terminal Aerodrome Forecast
Issued by NWS

Home | Current Version | Previous Version | Text Only | Print | Product List | Glossary On
Versions: 1 2 3 4 5 6 7 8 9 10 11 12 13 14 15 16
000
FTUS43 KMQT 021505 AAA
TAFSAW
TAF AMD
KSAW 021505Z 0215/0312 19005KT P6SM VCSH SCT006 BKN040
      TEMPO 0215/0217 BKN006
     FM021800 01007KT P6SM -SHRA SCT030 BKN040
     FM022200 01006KT P6SM BKN070
     FM030100 33004KT P6SM BKN070=

USA.gov is the U.S. government's official web portal to all federal, state and local government web resources and services.